Probability
0 0 0 0 0 0 0 0 0 0 0 0 0 0 0 0 0 0 0 0 0 0 0 0 0 0 0 0 0 0 0 0 0 0 3 3 3 3 3 3 3 3 0 0
0 0 0 0 0 0 0 0 0 0 0 0 0 0 0 0 0 0 0 0 0 0 0 0 0 0 0 0 0 0 0 0 0 0 3 3 3 3 3 3 3 3 3 0
0 0 0 0 0 0 0 0 0 0 0 0 0 0 0 0 0 0 0 0 0 0 0 0 0 0 0 0 0 0 0 0 0 0 0 3 3 3 0 0 0 0 0 0
0 0 0 0 0 0 0 0 0 0 0 0 0 0 0 0 0 0 0 0 0 0 0 0 0 0 0 0 0 0 0 0 0 0 0 3 0 0 0 0 0 0 0 0
0 0 0 0 0 0 0 0 0 0 0 0 0 0 0 0 0 0 0 0 0 0 0 0 0 0 0 0 0 0 0 0 0 0 0 3 3 0 0 0 0 0 0 0
0 0 0 0 0 0 0 0 0 0 0 0 0 0 0 0 0 0 0 0 0 0 0 0 0 0 0 0 0 0 0 0 0 0 0 0 0 0 0 0 0 0 0 0
0 0 0 0 0 0 0 0 0 0 0 0 0 0 0 0 0 0 0 0 0 0 0 0 0 0 0 0 0 0 0 0 0 0 0 0 0 0 0 0 0 0 0 0
0 0 0 0 0 0 0 0 0 0 0 0 0 0 0 0 0 0 0 0 0 0 0 0 0 0 0 0 0 0 0 0 0 0 0 0 0 0 0 0 0 0 0 0
0 0 0 0 0 0 0 0 0 0 0 0 0 0 0 0 0 0 0 0 0 0 0 0 0 0 0 0 0 0 0 0 0 0 0 0 0 0 0 0 0 0 0 0
0 0 0 0 0 0 0 0 0 0 0 0 0 0 0 0 0 0 0 0 0 0 0 0 0 0 0 0 0 0 0 0 0 0 0 0 0 0 0 0 0 0 0 0
0 0 0 0 0 0 0 0 0 0 0 0 0 0 0 0 0 0 0 0 0 0 0 0 0 0 0 0 0 0 0 0 0 0 0 0 0 0 0 0 0 0 0 0
0 0 0 0 0 0 0 0 0 0 0 0 0 0 0 0 0 0 0 0 0 0 0 0 0 0 0 0 0 0 0 0 0 0 0 0 0 0 0 0 0 0 0 0
0 0 0 0 0 0 0 0 0 0 0 0 0 0 0 0 0 0 0 0 0 0 0 0 0 0 0 0 0 0 0 0 0 0 0 0 0 0 0 0 0 0 0 0
0 0 0 0 0 0 0 0 0 0 0 0 0 0 0 0 0 0 0 0 0 0 0 0 0 0 0 0 0 0 0 0 0 0 0 0 0 0 0 0 0 0 0 0
0 0 0 0 0 0 0 0 0 0 0 0 0 0 0 0 0 0 0 0 0 0 0 0 0 0 0 0 0 0 0 0 0 0 0 0 0 0 0 0 0 0 0 0
0 0 0 0 0 0 0 0 0 0 0 0 0 0 0 0 0 0 0 0 0 0 0 0 0 0 0 0 0 0 0 0 0 0 0 0 0 0 0 0 0 0 0 0
0 0 0 0 0 0 0 0 0 0 0 0 0 0 0 0 0 0 0 0 0 0 0 0 0 0 0 0 0 0 0 0 0 0 0 0 0 0 0 0 0 0 0 0
0 0 0 0 0 0 0 0 0 0 0 0 0 0 0 0 0 0 0 0 0 0 0 0 0 0 0 0 0 0 0 0 0 0 0 0 0 0 0 0 0 0 0 0
0 0 0 0 0 0 0 0 0 0 0 0 0 0 0 0 0 0 0 0 0 0 0 0 0 0 0 0 0 0 0 0 0 0 0 0 0 0 0 0 0 0 0 0
0 0 0 0 0 0 0 0 0 0 0 0 0 0 0 0 0 0 0 0 0 0 0 0 0 0 0 0 0 0 0 0 0 0 0 0 0 0 0 0 0 0 0 0
0 0 0 0 0 0 0 0 0 0 0 0 0 0 0 0 0 0 0 0 0 0 0 0 0 0 0 0 0 0 0 0 0 0 0 0 0 0 0 0 0 0 0 0
0 0 0 0 0 0 0 0 0 0 0 0 0 0 0 0 0 0 0 0 0 0 0 0 0 0 0 0 0 0 0 0 0 0 0 0 0 0 0 0 0 0 0 0
0 0 0 0 0 0 0 0 0 0 0 0 0 0 0 0 0 0 0 0 0 0 0 0 0 0 0 0 0 0 0 0 0 0 0 0 0 0 0 0 0 0 0 0
0 0 0 0 0 0 0 0 0 0 0 0 0 0 0 0 0 0 0 0 0 0 0 0 0 0 0 0 0 0 0 0 0 0 0 0 0 0 0 0 0 0 0 0
0 0 0 0 0 0 0 0 0 0 0 0 0 0 0 0 0 0 0 0 0 0 0 0 0 0 0 0 0 0 0 0 0 0 0 0 0 0 0 0 0 0 0 0
0 0 0 0 0 0 0 0 0 0 0 0 0 0 0 0 0 0 0 0 0 0 0 0 0 0 0 0 0 0 0 0 0 0 0 0 0 0 0 0 0 0 0 0
Height
5708 5708 5706 5706 5705 5704 5703 5702 5702 5701 5700 5700 5700 5701 5702 5702 5703 5703 5703 5704 5705 5706 5706 5707 5708 5709 5710 5712 5713 5715 5716 5717 5719 5720 5722 5723 5725 5726 5727 5728 5729 5730 5731 5733
5698 5698 5698 5696 5694 5694 5693 5692 5692 5691 5690 5689 5689 5690 5691 5691 5692 5692 5693 5693 5693 5694 5694 5695 5696 5697 5699 5700 5702 5703 5705 5706 5708 5709 5711 5712 5714 5715 5716 5717 5718 5720 5721 5722
5689 5689 5687 5686 5685 5684 5683 5683 5682 5681 5679 5678 5678 5678 5680 5680 5680 5680 5681 5681 5681 5682 5682 5683 5684 5685 5687 5688 5690 5692 5693 5695 5696 5698 5699 5701 5702 5704 5705 5706 5707 5708 5709 5710
5680 5679 5678 5676 5675 5674 5673 5673 5672 5670 5669 5667 5668 5665 5669 5669 5669 5669 5669 5669 5669 5669 5670 5670 5672 5673 5674 5676 5678 5679 5681 5682 5684 5686 5687 5689 5690 5692 5693 5694 5695 5696 5697 5698
5671 5670 5668 5667 5667 5665 5663 5663 5661 5660 5658 5657 5656 5654 5657 5657 5658 5658 5658 5657 5656 5656 5657 5658 5659 5660 5662 5663 5665 5667 5668 5670 5672 5673 5675 5676 5678 5679 5680 5682 5683 5684 5685 5686
5662 5660 5659 5658 5657 5655 5653 5653 5651 5649 5647 5646 5647 5644 5644 5646 5646 5646 5646 5645 5644 5644 5645 5645 5646 5647 5649 5650 5652 5654 5655 5657 5659 5660 5662 5663 5665 5666 5668 5669 5670 5671 5672 5673
5654 5652 5650 5648 5647 5646 5644 5644 5641 5638 5636 5636 5636 5633 5634 5635 5635 5634 5634 5633 5632 5632 5632 5633 5633 5634 5636 5637 5639 5640 5642 5644 5645 5647 5648 5650 5651 5652 5654 5655 5656 5658 5658 5659
5645 5644 5642 5640 5638 5637 5635 5635 5633 5630 5627 5626 5624 5622 5625 5624 5623 5622 5621 5621 5620 5620 5620 5621 5621 5622 5623 5624 5625 5627 5628 5630 5631 5633 5634 5636 5637 5639 5640 5641 5642 5644 5645 5645
5636 5635 5633 5631 5629 5628 5626 5624 5623 5620 5617 5615 5613 5613 5614 5613 5612 5611 5610 5609 5608 5608 5608 5608 5609 5609 5610 5611 5612 5613 5615 5616 5617 5619 5620 5622 5623 5624 5626 5627 5628 5629 5630 5631
5628 5626 5625 5623 5621 5619 5617 5615 5614 5610 5607 5605 5603 5603 5604 5602 5601 5599 5598 5597 5596 5596 5596 5596 5597 5597 5598 5598 5599 5600 5601 5602 5603 5604 5606 5607 5608 5609 5611 5612 5613 5614 5615 5616
5620 5618 5616 5614 5612 5610 5608 5607 5603 5601 5599 5596 5593 5596 5593 5592 5590 5588 5587 5585 5585 5585 5585 5584 5584 5584 5585 5585 5586 5586 5587 5588 5589 5590 5591 5592 5593 5594 5595 5597 5597 5598 5599 5600
5612 5610 5608 5607 5604 5601 5599 5597 5595 5593 5590 5586 5584 5587 5583 5582 5579 5577 5576 5574 5573 5573 5572 5572 5572 5572 5572 5572 5572 5573 5573 5574 5575 5576 5577 5578 5579 5580 5581 5581 5582 5583 5584 5585
5605 5602 5600 5598 5598 5594 5591 5588 5586 5583 5580 5577 5574 5577 5573 5571 5568 5566 5564 5563 5562 5561 5560 5560 5559 5559 5559 5559 5559 5560 5560 5560 5561 5562 5563 5564 5564 5565 5566 5566 5567 5567 5568 5569
5597 5594 5593 5591 5587 5584 5581 5580 5577 5573 5570 5567 5566 5565 5564 5560 5558 5556 5554 5551 5550 5549 5548 5547 5547 5546 5546 5546 5546 5546 5547 5547 5548 5548 5549 5549 5550 5550 5551 5551 5552 5552 5553 5554
5589 5587 5584 5582 5579 5575 5572 5570 5567 5564 5561 5558 5557 5555 5554 5550 5547 5545 5543 5541 5539 5538 5536 5535 5535 5534 5534 5534 5534 5534 5534 5534 5534 5535 5535 5535 5535 5535 5536 5536 5537 5538 5538 5539
5581 5578 5575 5573 5570 5566 5563 5562 5558 5554 5551 5548 5546 5545 5543 5540 5537 5535 5533 5531 5529 5527 5525 5524 5523 5522 5521 5521 5521 5521 5521 5521 5521 5521 5521 5521 5521 5521 5521 5521 5522 5522 5522 5523
5573 5569 5566 5564 5561 5556 5554 5554 5550 5546 5542 5539 5536 5536 5533 5530 5527 5525 5522 5520 5518 5516 5515 5513 5511 5510 5509 5508 5508 5508 5508 5507 5507 5507 5506 5506 5506 5506 5506 5506 5506 5506 5507 5507
5564 5560 5556 5553 5551 5546 5549 5544 5540 5536 5533 5530 5527 5525 5522 5519 5517 5514 5512 5510 5507 5505 5504 5502 5500 5498 5497 5496 5495 5495 5494 5494 5493 5493 5493 5492 5492 5491 5491 5491 5491 5491 5491 5491
5555 5551 5547 5543 5539 5537 5537 5535 5530 5526 5524 5521 5517 5514 5511 5509 5507 5504 5501 5499 5496 5494 5492 5490 5489 5487 5485 5483 5482 5482 5481 5480 5480 5479 5479 5478 5477 5476 5476 5475 5475 5475 5475 5475
5546 5542 5539 5534 5529 5527 5529 5525 5519 5517 5514 5512 5507 5504 5501 5498 5496 5495 5491 5488 5485 5483 5481 5479 5477 5475 5473 5471 5470 5469 5468 5467 5466 5465 5464 5463 5462 5462 5461 5461 5460 5460 5460 5460
5537 5533 5529 5525 5520 5517 5518 5514 5510 5507 5506 5501 5497 5494 5491 5488 5486 5483 5480 5477 5474 5471 5469 5467 5465 5463 5461 5459 5457 5456 5455 5453 5452 5451 5450 5449 5448 5447 5446 5446 5445 5445 5445 5445
5527 5523 5520 5516 5511 5512 5508 5504 5501 5498 5494 5490 5487 5484 5481 5478 5475 5472 5469 5465 5462 5460 5457 5455 5453 5451 5449 5447 5445 5444 5442 5440 5439 5437 5436 5434 5433 5432 5431 5431 5430 5430 5429 5429
5518 5515 5510 5508 5506 5502 5497 5494 5490 5487 5484 5480 5477 5474 5470 5467 5464 5461 5458 5455 5451 5448 5446 5443 5441 5439 5436 5434 5433 5431 5429 5427 5425 5424 5422 5420 5419 5417 5417 5416 5416 5415 5414 5414
5509 5505 5501 5498 5496 5492 5488 5484 5480 5477 5473 5469 5466 5463 5459 5456 5453 5450 5447 5444 5440 5437 5434 5431 5429 5426 5424 5422 5420 5418 5416 5414 5412 5410 5408 5406 5405 5404 5402 5401 5401 5400 5399 5399
5499 5495 5491 5488 5486 5481 5478 5474 5470 5466 5462 5459 5456 5452 5448 5445 5442 5439 5436 5433 5429 5426 5423 5420 5417 5414 5412 5410 5408 5405 5403 5401 5399 5397 5395 5393 5392 5390 5389 5388 5387 5386 5385 5383
5490 5486 5481 5478 5475 5470 5467 5463 5459 5455 5452 5448 5445 5441 5437 5434 5431 5428 5425 5421 5418 5415 5411 5408 5405 5403 5400 5398 5396 5393 5391 5389 5387 5385 5382 5380 5379 5377 5376 5374 5373 5371 5371 5370
Wind_Speed
33 34 34 35 35 36 37 37 37 37 38 38 38 39 39 40 41 41 42 42 43 43 44 44 44 44 44 43 43 43 43 43 43 43 43 43 43 43 43 43 43 43 43 43
34 34 34 34 35 36 36 37 37 38 38 39 40 40 40 40 41 41 42 42 43 44 45 45 45 45 44 44 45 45 45 45 45 45 45 45 45 45 45 45 45 45 44 44
33 33 32 33 34 35 35 36 37 38 39 40 41 41 40 40 40 40 41 42 43 44 45 46 46 46 45 46 46 47 47 47 46 46 46 47 47 48 47 47 47 46 46 45
31 31 32 32 33 34 36 36 37 38 39 40 40 41 39 39 39 39 40 41 42 43 44 45 46 46 47 47 47 48 48 48 48 48 48 48 49 49 49 48 48 48 47 47
30 30 31 31 33 34 35 35 36 37 38 40 40 41 40 39 39 38 38 39 41 42 43 44 45 46 47 48 48 49 49 50 50 50 50 50 50 50 50 50 50 50 49 49
30 31 31 31 32 33 34 35 37 38 39 40 39 41 41 38 38 38 38 38 39 40 42 43 45 46 46 47 48 49 50 50 50 51 51 51 51 51 51 52 52 51 51 50
30 30 30 31 32 32 33 34 35 37 38 39 39 40 40 38 37 37 37 38 39 40 41 42 43 45 45 47 47 49 50 50 51 52 52 52 53 53 53 53 53 53 52 52
30 30 30 31 32 32 32 33 34 36 38 38 38 39 38 38 37 37 37 38 39 40 42 43 43 43 44 45 47 48 49 50 51 51 52 53 53 53 54 54 54 54 54 54
31 30 29 30 31 32 32 32 33 35 37 37 38 38 38 37 37 37 37 37 37 39 40 41 42 42 43 44 46 47 48 50 51 51 52 53 53 54 54 55 55 55 55 55
30 31 30 30 30 30 31 32 32 34 36 38 39 38 37 36 36 37 37 37 38 38 39 40 41 42 43 44 45 47 48 50 51 51 52 53 54 55 55 55 56 56 56 56
30 31 30 30 29 29 30 31 33 34 36 37 39 38 37 36 36 37 37 38 38 38 39 40 42 43 44 45 45 46 47 49 50 51 52 54 55 55 55 55 56 57 56 56
30 31 30 29 29 29 30 30 32 34 35 36 38 38 36 36 36 37 37 38 38 39 40 41 42 43 44 45 46 46 47 48 49 50 51 53 54 55 55 56 56 56 56 56
30 30 31 31 31 30 31 31 32 34 36 37 38 38 37 36 36 37 37 38 39 39 40 41 42 43 44 45 46 46 46 47 48 49 51 52 53 54 54 55 55 56 56 57
30 30 30 30 31 32 32 32 33 34 35 37 37 37 36 37 37 37 37 38 38 39 39 40 41 42 43 44 45 45 45 46 47 48 50 51 52 53 53 54 54 55 55 56
31 31 31 31 31 32 33 32 33 34 35 37 36 36 35 36 36 36 36 37 37 37 38 38 40 40 41 42 43 44 44 45 46 48 49 50 51 52 53 53 54 55 55 56
31 32 31 31 32 33 33 32 33 34 35 36 35 35 34 35 36 36 36 36 37 37 37 38 38 39 40 40 41 42 44 45 46 47 48 49 50 51 52 53 54 54 55 56
32 32 32 32 32 33 33 31 32 33 33 34 34 34 34 34 35 36 37 37 37 37 38 38 38 39 40 40 41 41 42 43 44 45 46 48 49 50 51 52 53 54 55 55
32 32 33 33 33 33 32 31 32 33 33 33 34 34 35 35 35 36 37 37 37 38 38 38 39 39 40 41 41 42 42 42 44 45 46 48 49 50 51 51 52 52 53 53
32 33 34 34 35 35 33 32 32 33 33 33 33 33 34 35 35 36 36 37 38 38 39 39 39 39 39 40 41 42 43 44 45 45 46 47 48 49 49 50 50 50 51 51
32 33 34 34 35 35 34 33 33 33 32 32 33 33 34 34 35 35 36 37 38 38 38 38 39 39 39 39 40 41 42 43 44 45 46 47 47 47 48 48 49 50 50 50
32 33 33 34 34 35 33 32 33 33 33 33 33 34 35 35 36 36 36 37 37 37 38 38 38 39 39 40 40 40 41 42 43 44 45 45 46 46 47 48 48 49 50 50
32 33 33 33 33 33 33 33 33 34 35 35 35 35 36 36 36 36 36 36 36 37 37 38 39 39 40 40 40 40 41 41 42 42 43 44 45 45 46 47 48 48 49 49
32 33 34 34 33 33 34 34 35 35 36 36 36 36 37 37 36 36 36 36 37 37 37 38 38 39 39 40 39 40 40 40 40 40 41 42 42 43 44 46 47 47 48 48
34 34 35 34 33 34 34 34 35 35 36 36 36 36 37 36 36 36 36 36 36 36 37 37 37 37 37 38 39 40 40 39 39 39 39 40 40 41 42 43 44 45 46 47
35 35 35 35 34 35 35 35 35 35 36 36 36 36 36 36 36 35 36 36 36 36 36 36 36 36 37 37 38 38 39 39 38 38 39 39 39 40 41 41 42 43 44 45
35 36 36 35 35 35 35 35 35 36 36 36 36 36 36 36 36 36 36 36 36 36 36 36 36 36 36 36 37 37 37 38 38 38 38 39 38 39 40 40 40 40 40 41
Wind_Direction
272 271 271 271 270 269 268 268 269 268 266 265 264 263 263 263 262 262 262 261 259 258 258 258 257 257 256 255 254 254 254 254 253 254 254 255 255 256 256 256 257 258 258 259
272 272 273 272 270 269 268 269 269 269 268 267 266 265 264 265 264 264 263 263 261 259 258 258 257 255 254 254 253 253 254 254 254 254 254 254 255 256 256 257 258 259 260 261
273 272 271 271 270 268 267 269 269 269 269 270 270 268 266 266 266 265 264 263 263 261 260 259 258 255 253 253 253 253 254 254 254 255 255 255 256 256 256 257 258 259 260 261
274 272 271 270 269 269 269 270 270 270 270 271 271 271 268 267 266 266 265 263 263 261 259 258 258 256 254 252 252 252 253 254 255 255 255 256 256 256 257 257 258 259 260 260
278 276 274 272 271 271 271 270 271 271 272 272 272 273 272 270 269 268 267 265 263 261 259 258 257 256 254 253 252 253 253 253 254 255 255 255 256 256 257 257 258 260 261 261
280 279 276 275 274 273 273 274 274 274 274 274 274 275 274 272 272 270 269 267 264 262 260 259 258 256 255 254 253 253 253 253 254 254 255 256 256 257 257 258 259 260 260 261
283 281 279 276 276 275 275 276 278 277 277 277 277 276 275 275 273 272 269 267 265 263 261 260 259 258 257 256 255 254 253 253 254 254 255 255 255 256 257 258 259 259 260 261
288 285 283 279 277 278 277 277 278 280 281 281 280 279 279 277 275 273 271 268 266 265 263 261 261 260 259 257 256 255 254 253 253 254 254 255 255 256 257 258 259 260 261 261
290 288 286 284 282 280 279 278 278 280 281 282 282 282 281 279 277 275 273 270 267 267 265 263 262 261 260 259 258 256 256 255 254 254 254 254 255 256 257 258 259 260 261 261
291 288 287 287 286 283 281 281 281 281 283 284 283 283 283 283 280 278 275 271 269 268 267 265 263 263 262 261 261 259 257 256 255 255 255 255 256 257 257 258 259 260 260 261
292 290 290 290 289 287 284 282 281 280 281 283 284 284 283 284 283 280 277 274 272 269 268 266 264 264 263 263 263 262 260 259 258 257 257 257 257 258 259 259 260 260 260 260
294 292 291 291 291 290 288 285 283 282 282 281 283 283 283 283 282 281 279 277 275 272 270 268 267 266 265 263 263 262 261 260 259 259 259 259 259 260 260 260 260 260 261 260
295 293 293 292 291 291 289 288 287 285 283 281 281 283 283 282 281 282 281 278 276 274 273 271 269 268 266 264 263 262 262 261 261 261 261 261 261 261 261 261 262 262 262 262
294 293 294 294 293 292 291 289 288 286 285 284 282 282 282 281 281 281 281 280 279 276 274 272 271 269 268 265 264 263 262 262 262 261 262 262 262 262 262 262 263 263 263 262
295 293 293 293 292 292 291 291 290 288 286 285 285 283 282 281 281 281 281 281 280 278 276 273 272 269 268 267 265 264 264 263 263 262 263 263 263 263 263 263 263 263 263 263
296 295 294 293 293 292 290 291 292 290 287 286 285 283 283 282 281 280 281 280 280 280 279 276 274 272 270 269 268 266 265 264 264 263 263 263 263 264 264 264 264 264 264 264
295 295 295 294 294 293 292 294 294 293 290 287 285 285 282 282 282 281 280 280 280 280 279 278 276 274 272 270 269 268 267 266 266 265 265 265 264 265 265 265 265 265 264 264
296 296 295 295 295 293 297 297 295 293 292 289 287 285 283 282 283 283 283 282 282 280 279 279 278 276 275 272 270 269 268 269 268 266 266 266 266 266 266 266 265 265 264 264
297 297 296 296 296 296 296 298 298 296 294 291 289 287 286 285 285 285 284 284 284 283 282 281 280 279 277 275 272 270 270 270 269 268 268 268 268 268 267 267 265 265 264 264
297 296 296 296 297 298 300 299 299 298 296 295 292 290 289 289 287 287 287 285 284 283 283 282 280 279 278 276 274 272 272 272 271 270 270 270 269 269 268 267 266 265 265 265
298 297 296 297 297 297 300 300 299 298 299 297 295 293 291 290 289 289 289 287 286 284 283 282 281 280 279 277 276 275 275 274 273 273 272 271 269 268 268 267 267 266 266 265
299 298 298 298 298 300 301 299 298 297 297 297 296 295 293 292 290 290 289 289 287 286 284 283 281 281 280 279 277 277 276 275 274 275 275 273 271 269 268 268 268 268 267 267
298 298 297 298 299 299 299 298 297 297 297 297 296 295 294 293 292 291 291 290 289 288 287 285 283 282 281 280 279 278 277 277 276 277 276 275 273 271 270 269 269 269 268 268
297 297 297 299 300 298 297 297 297 297 297 297 296 295 295 294 293 292 291 291 290 290 288 287 285 283 282 281 280 279 278 278 278 277 277 276 274 273 272 271 271 270 269 269
296 297 298 298 299 298 297 297 297 296 296 297 297 297 296 295 294 293 292 291 290 290 289 288 286 285 283 282 281 280 279 279 279 279 278 276 274 274 273 272 272 271 270 269
297 298 297 297 298 296 296 296 296 296 296 295 296 296 296 295 294 294 294 293 292 291 290 288 287 285 284 283 281 280 280 280 280 280 278 277 276 276 275 274 273 272 271 270